| time (UTC) | temp F | wind direction | speed knots | gust knots | rain 1hr in | rain 24hr in | rain mn in | humidity % | barometer mb |
| 20260503224005 | 89 | 151 | 0.9 | 2.6 | 0.00 | 0.00 | 0.00 | 35 | 1008.9 |
| 20260503223505 | 89 | 209 | 0.9 | 6.1 | 0.00 | 0.00 | 0.00 | 37 | 1009.0 |
| 20260503223006 | 89 | 199 | 0.9 | 6.1 | 0.00 | 0.00 | 0.00 | 38 | 1009.1 |
| 20260503222505 | 88 | 185 | 1.7 | 6.1 | 0.00 | 0.00 | 0.00 | 38 | 1009.1 |
| 20260503222006 | 89 | 180 | 2.6 | 4.3 | 0.00 | 0.00 | 0.00 | 37 | 1009.2 |
| 20260503221505 | 89 | 195 | 1.7 | 2.6 | 0.00 | 0.00 | 0.00 | 41 | 1009.3 |
| 20260503221005 | 89 | 191 | 1.7 | 5.2 | 0.00 | 0.00 | 0.00 | 38 | 1009.3 |
| 20260503220505 | 89 | 140 | 1.7 | 5.2 | 0.00 | 0.00 | 0.00 | 33 | 1009.4 |
| 20260503220005 | 89 | 74 | 1.7 | 4.3 | 0.00 | 0.00 | 0.00 | 33 | 1009.4 |
| 20260503215507 | 88 | 56 | 1.7 | 6.1 | 0.00 | 0.00 | 0.00 | 31 | 1009.5 |
| 20260503194005 | 83 | 39 | 1.7 | 7.0 | 0.00 | 0.00 | 0.00 | 46 | 1011.3 |
| 20260503193505 | 83 | 72 | 1.7 | 7.0 | 0.00 | 0.00 | 0.00 | 47 | 1011.3 |
| 20260503193005 | 82 | 34 | 1.7 | 4.3 | 0.00 | 0.00 | 0.00 | 46 | 1011.3 |
| 20260503192505 | 82 | 31 | 2.6 | 6.1 | 0.00 | 0.00 | 0.00 | 47 | 1011.6 |
| 20260503192005 | 81 | 56 | 1.7 | 6.1 | 0.00 | 0.00 | 0.00 | 47 | 1011.5 |
| 20260503191505 | 81 | 94 | 2.6 | 6.1 | 0.00 | 0.00 | 0.00 | 45 | 1011.6 |
| 20260503191004 | 80 | 68 | 2.6 | 6.1 | 0.00 | 0.00 | 0.00 | 46 | 1011.7 |
| 20260503190505 | 80 | 105 | 3.5 | 6.1 | 0.00 | 0.00 | 0.00 | 46 | 1011.7 |
| 20260503190007 | 80 | 64 | 2.6 | 5.2 | 0.00 | 0.00 | 0.00 | 46 | 1011.6 |
| 20260503185506 | 80 | 54 | 1.7 | 5.2 | 0.00 | 0.00 | 0.00 | 46 | 1011.9 |
| 20260503185006 | 80 | 66 | 1.7 | 4.3 | 0.00 | 0.00 | 0.00 | 48 | 1011.9 |
| 20260503184507 | 80 | 56 | 1.7 | 4.3 | 0.00 | 0.00 | 0.00 | 50 | 1011.9 |
| 20260503173506 | 73 | 201 | 1.7 | 2.6 | 0.00 | 0.00 | 0.00 | 61 | 1012.7 |
| 20260503173007 | 72 | 223 | 1.7 | 2.6 | 0.00 | 0.00 | 0.00 | 61 | 1012.7 |
| 20260503172505 | 72 | 190 | 1.7 | 2.6 | 0.00 | 0.00 | 0.00 | 61 | 1012.7 |
| 20260503172006 | 72 | 189 | 1.7 | 2.6 | 0.00 | 0.00 | 0.00 | 61 | 1012.8 |
| 20260503171506 | 71 | 201 | 1.7 | 2.6 | 0.00 | 0.00 | 0.00 | 61 | 1012.8 |
| 20260503171006 | 71 | 208 | 1.7 | 2.6 | 0.00 | 0.00 | 0.00 | 62 | 1012.8 |
| 20260503170506 | 71 | 207 | 0.9 | 2.6 | 0.00 | 0.00 | 0.00 | 64 | 1012.8 |
| 20260503131006 | 51 | 231 | 0.0 | 0.9 | 0.00 | 0.00 | 0.00 | 93 | 1013.2 |
| 20260503130506 | 50 | 231 | 0.0 | 1.7 | 0.00 | 0.00 | 0.00 | 93 | 1013.2 |
| 20260503110506 | 52 | 231 | 0.0 | 0.9 | 0.00 | 0.00 | 0.00 | 92 | 1013.5 |
| 20260503090505 | 55 | 259 | 0.0 | 0.9 | 0.00 | 0.00 | 0.00 | 89 | 1013.6 |
| 20260503081505 | 56 | 202 | 0.0 | 2.6 | 0.00 | 0.00 | 0.00 | 87 | 1013.6 |
| 20260503081006 | 56 | 203 | 1.7 | 2.6 | 0.00 | 0.00 | 0.00 | 87 | 1013.6 |
| 20260503080506 | 56 | 191 | 0.9 | 2.6 | 0.00 | 0.00 | 0.00 | 87 | 1013.7 |
| 20260503072506 | 57 | 190 | 0.0 | 1.7 | 0.00 | 0.00 | 0.00 | 85 | 1013.8 |
| 20260503072006 | 58 | 178 | 0.9 | 1.7 | 0.00 | 0.00 | 0.00 | 85 | 1013.8 |
| 20260503071506 | 58 | 35 | 0.9 | 2.6 | 0.00 | 0.00 | 0.00 | 86 | 1013.8 |
| 20260503071006 | 58 | 21 | 0.9 | 2.6 | 0.00 | 0.00 | 0.00 | 85 | 1013.7 |
| 20260503070506 | 58 | 41 | 0.9 | 2.6 | 0.00 | 0.00 | 0.00 | 84 | 1013.8 |
| 20260503050005 | 62 | 314 | 0.0 | 0.9 | 0.00 | 0.00 | 0.00 | 78 | 1013.8 |
| 20260503045505 | 62 | 315 | 0.0 | 1.7 | 0.00 | 0.00 | 0.00 | 78 | 1013.8 |
| 20260503045005 | 62 | 257 | 0.0 | 1.7 | 0.00 | 0.00 | 0.00 | 77 | 1013.7 |
| 20260503044505 | 62 | 288 | 0.0 | 0.9 | 0.00 | 0.00 | 0.00 | 77 | 1013.6 |
| 20260503044005 | 63 | 246 | 0.0 | 1.7 | 0.00 | 0.00 | 0.00 | 76 | 1013.5 |
| 20260503043505 | 63 | 246 | 0.9 | 1.7 | 0.00 | 0.00 | 0.00 | 76 | 1013.4 |
| 20260503043005 | 63 | 275 | 0.0 | 1.7 | 0.00 | 0.00 | 0.00 | 76 | 1013.4 |
| 20260503042505 | 63 | 269 | 0.9 | 1.7 | 0.00 | 0.00 | 0.00 | 76 | 1013.4 |
| 20260503042006 | 63 | 302 | 0.0 | 2.6 | 0.00 | 0.00 | 0.00 | 75 | 1013.3 |
| 20260503041505 | 64 | 308 | 0.9 | 2.6 | 0.00 | 0.00 | 0.00 | 75 | 1013.3 |
| 20260503041005 | 64 | 275 | 0.0 | 1.7 | 0.00 | 0.00 | 0.00 | 75 | 1013.2 |
| 20260503040505 | 64 | 323 | 0.0 | 1.7 | 0.00 | 0.00 | 0.00 | 74 | 1013.0 |
| 20260503040005 | 65 | 355 | 0.0 | 1.7 | 0.00 | 0.00 | 0.00 | 74 | 1012.9 |
| 20260503035506 | 65 | 316 | 0.0 | 1.7 | 0.00 | 0.00 | 0.00 | 73 | 1012.8 |
| 20260503035006 | 65 | 326 | 0.0 | 1.7 | 0.00 | 0.00 | 0.00 | 73 | 1012.7 |
| 20260503034505 | 65 | 328 | 0.0 | 0.9 | 0.00 | 0.00 | 0.00 | 72 | 1012.6 |
| 20260503034005 | 66 | 265 | 0.0 | 2.6 | 0.00 | 0.00 | 0.00 | 72 | 1012.4 |
| 20260503033505 | 66 | 195 | 0.9 | 2.6 | 0.00 | 0.00 | 0.00 | 72 | 1012.3 |
| 20260503033006 | 66 | 220 | 0.9 | 2.6 | 0.00 | 0.00 | 0.00 | 71 | 1012.2 |
| 20260503032505 | 67 | 257 | 0.9 | 2.6 | 0.00 | 0.00 | 0.00 | 70 | 1012.1 |
| 20260503032005 | 67 | 278 | 1.7 | 2.6 | 0.00 | 0.00 | 0.00 | 70 | 1011.9 |
| 20260503031505 | 67 | 250 | 0.9 | 1.7 | 0.00 | 0.00 | 0.00 | 70 | 1011.9 |
| 20260503031007 | 68 | 198 | 0.9 | 4.3 | 0.00 | 0.00 | 0.00 | 69 | 1011.8 |
| 20260503030505 | 68 | 250 | 0.9 | 4.3 | 0.00 | 0.00 | 0.00 | 69 | 1011.7 |
| 20260503030006 | 69 | 254 | 0.9 | 4.3 | 0.00 | 0.00 | 0.00 | 68 | 1011.6 |
| 20260503025505 | 69 | 232 | 0.9 | 2.6 | 0.00 | 0.00 | 0.00 | 67 | 1011.7 |
| 20260503025006 | 69 | 199 | 0.9 | 2.6 | 0.00 | 0.00 | 0.00 | 67 | 1011.7 |
| 20260503024505 | 70 | 207 | 0.9 | 2.6 | 0.00 | 0.00 | 0.00 | 66 | 1011.7 |
| 20260503024005 | 70 | 230 | 1.7 | 2.6 | 0.00 | 0.00 | 0.00 | 65 | 1011.7 |
| 20260503023506 | 71 | 260 | 0.9 | 2.6 | 0.00 | 0.00 | 0.00 | 65 | 1011.7 |
| 20260503023005 | 71 | 261 | 0.9 | 6.1 | 0.00 | 0.00 | 0.00 | 65 | 1011.7 |
| 20260503022506 | 71 | 253 | 1.7 | 6.1 | 0.00 | 0.00 | 0.00 | 64 | 1011.6 |
| 20260503022006 | 72 | 257 | 0.9 | 4.3 | 0.00 | 0.00 | 0.00 | 64 | 1011.6 |
| 20260503021506 | 72 | 235 | 1.7 | 4.3 | 0.00 | 0.00 | 0.00 | 63 | 1011.7 |
| 20260503021006 | 73 | 251 | 0.9 | 2.6 | 0.00 | 0.00 | 0.00 | 62 | 1011.6 |
| 20260503020506 | 74 | 225 | 0.9 | 2.6 | 0.00 | 0.00 | 0.00 | 61 | 1011.7 |
| 20260503020005 | 74 | 260 | 0.9 | 2.6 | 0.00 | 0.00 | 0.00 | 60 | 1011.6 |
| 20260503015505 | 75 | 272 | 0.9 | 2.6 | 0.00 | 0.00 | 0.00 | 60 | 1011.7 |
| 20260503015005 | 75 | 279 | 0.9 | 2.6 | 0.00 | 0.00 | 0.00 | 59 | 1011.6 |
| 20260503014505 | 75 | 296 | 0.9 | 6.1 | 0.00 | 0.00 | 0.00 | 59 | 1011.7 |
| 20260503014005 | 75 | 226 | 1.7 | 6.1 | 0.00 | 0.00 | 0.00 | 59 | 1011.7 |
| 20260503013505 | 76 | 251 | 1.7 | 6.1 | 0.00 | 0.00 | 0.00 | 58 | 1011.7 |
| 20260503013005 | 76 | 271 | 1.7 | 6.1 | 0.00 | 0.00 | 0.00 | 57 | 1011.8 |
| 20260503012504 | 76 | 216 | 1.7 | 2.6 | 0.00 | 0.00 | 0.00 | 56 | 1011.7 |
| 20260503012005 | 76 | 207 | 0.9 | 2.6 | 0.00 | 0.00 | 0.00 | 55 | 1011.7 |
| 20260503011506 | 76 | 210 | 0.9 | 2.6 | 0.00 | 0.00 | 0.00 | 56 | 1011.6 |
| 20260503011005 | 77 | 124 | 0.9 | 2.6 | 0.00 | 0.00 | 0.00 | 55 | 1011.6 |
| 20260503010504 | 77 | 242 | 0.9 | 2.6 | 0.00 | 0.00 | 0.00 | 55 | 1011.6 |
| 20260503010005 | 76 | 293 | 0.9 | 2.6 | 0.00 | 0.00 | 0.00 | 55 | 1011.6 |
| 20260503005505 | 77 | 251 | 0.9 | 4.3 | 0.00 | 0.00 | 0.00 | 56 | 1011.6 |
| 20260503004505 | 77 | 256 | 0.9 | 7.0 | 0.00 | 0.00 | 0.00 | 56 | 1011.7 |
| 20260503004005 | 77 | 237 | 1.7 | 7.0 | 0.00 | 0.00 | 0.00 | 56 | 1011.7 |
| 20260503003505 | 77 | 269 | 1.7 | 2.6 | 0.00 | 0.00 | 0.00 | 56 | 1011.7 |
| 20260503003006 | 77 | 270 | 0.9 | 2.6 | 0.00 | 0.00 | 0.00 | 57 | 1011.6 |
| 20260503002505 | 77 | 223 | 0.9 | 4.3 | 0.00 | 0.00 | 0.00 | 56 | 1011.6 |
| 20260503002006 | 77 | 222 | 0.9 | 4.3 | 0.00 | 0.00 | 0.00 | 56 | 1011.7 |
| 20260503001506 | 77 | 259 | 0.9 | 4.3 | 0.00 | 0.00 | 0.00 | 57 | 1011.7 |
| 20260503001005 | 77 | 242 | 0.9 | 2.6 | 0.00 | 0.00 | 0.00 | 57 | 1011.7 |
| 20260503000505 | 77 | 233 | 0.9 | 2.6 | 0.00 | 0.00 | 0.00 | 58 | 1011.8 |
| 20260503000005 | 76 | 239 | 0.9 | 4.3 | 0.00 | 0.00 | 0.00 | 59 | 1011.8 |
| 20260502235505 | 76 | 262 | 1.7 | 4.3 | 0.00 | 0.00 | 0.00 | 59 | 1011.8 |
| 20260502235006 | 75 | 194 | 0.9 | 4.3 | 0.00 | 0.00 | 0.00 | 61 | 1011.8 |
| 20260502234504 | 74 | 214 | 1.7 | 4.3 | 0.00 | 0.00 | 0.00 | 64 | 1011.8 |
| 20260502234005 | 72 | 216 | 1.7 | 2.6 | 0.00 | 0.00 | 0.00 | 67 | 1011.9 |
| 20260502233505 | 71 | 194 | 0.9 | 2.6 | 0.00 | 0.00 | 0.00 | 68 | 1012.0 |
| 20260502233005 | 72 | 194 | 1.7 | 2.6 | 0.00 | 0.00 | 0.00 | 69 | 1012.0 |
| 20260502232505 | 71 | 216 | 0.0 | 2.6 | 0.00 | 0.00 | 0.00 | 68 | 1012.3 |
| 20260502232005 | 71 | 198 | 0.9 | 2.6 | 0.00 | 0.00 | 0.00 | 70 | 1012.4 |
| 20260502231504 | 70 | 196 | 0.9 | 1.7 | 0.00 | 0.00 | 0.00 | 71 | 1012.4 |
| 20260502231005 | 69 | 187 | 0.9 | 1.7 | 0.00 | 0.00 | 0.00 | 72 | 1012.4 |
| 20260502230505 | 69 | 190 | 0.9 | 1.7 | 0.00 | 0.00 | 0.00 | 73 | 1012.6 |
| 20260502230005 | 69 | 188 | 0.9 | 2.6 | 0.00 | 0.00 | 0.00 | 70 | 1012.8 |
| 20260502225505 | 69 | 175 | 1.7 | 2.6 | 0.00 | 0.00 | 0.00 | 70 | 1013.0 |
| 20260502225005 | 70 | 191 | 1.7 | 2.6 | 0.00 | 0.00 | 0.00 | 68 | 1012.9 |
| 20260502224508 | 71 | 199 | 0.9 | 2.6 | 0.00 | 0.00 | 0.00 | 66 | 1013.0 |